| time (UTC) | temp F | wind direction | speed MPH | gust MPH | rain 1hr in | rain 24hr in | rain mn in | humidity % | barometer mb |
| 20260508054003 | 50 | 198 | 2.0 | 6.0 | 0.00 | 0.02 | 0.00 | 90 | 1026.0 |
| 20260508053503 | 50 | 226 | 3.0 | 8.0 | 0.00 | 0.02 | 0.00 | 90 | 1025.8 |
| 20260508053004 | 50 | 223 | 3.0 | 8.0 | 0.00 | 0.02 | 0.00 | 90 | 1026.0 |
| 20260508052503 | 50 | 151 | 1.0 | 4.0 | 0.00 | 0.02 | 0.00 | 90 | 1025.8 |
| 20260508052003 | 50 | 20 | 1.0 | 2.0 | 0.00 | 0.02 | 0.00 | 90 | 1025.8 |
| 20260508051503 | 49 | 335 | 1.0 | 4.0 | 0.00 | 0.02 | 0.00 | 90 | 1025.8 |
| 20260508051025 | 50 | 288 | 1.0 | 7.0 | 0.00 | 0.02 | 0.00 | 90 | 1025.7 |
| 20260508050503 | 50 | 282 | 2.0 | 7.0 | 0.00 | 0.02 | 0.00 | 89 | 1025.7 |
| 20260508050003 | 50 | 296 | 2.0 | 6.0 | 0.00 | 0.02 | 0.00 | 90 | 1025.7 |
| 20260508045504 | 50 | 334 | 3.0 | 6.0 | 0.00 | 0.02 | 0.00 | 89 | 1025.7 |
| 20260508045003 | 50 | 319 | 3.0 | 6.0 | 0.00 | 0.02 | 0.00 | 89 | 1025.7 |
| 20260508044503 | 50 | 284 | 2.0 | 5.0 | 0.00 | 0.02 | 0.00 | 89 | 1025.5 |
| 20260508044003 | 50 | 292 | 3.0 | 6.0 | 0.00 | 0.02 | 0.00 | 90 | 1025.3 |
| 20260508043503 | 50 | 285 | 3.0 | 6.0 | 0.00 | 0.02 | 0.00 | 91 | 1025.8 |
| 20260508043004 | 49 | 304 | 3.0 | 8.0 | 0.00 | 0.02 | 0.00 | 91 | 1026.0 |
| 20260508042503 | 49 | 334 | 3.0 | 8.0 | 0.00 | 0.02 | 0.00 | 91 | 1026.0 |
| 20260508042003 | 49 | 311 | 3.0 | 7.0 | 0.00 | 0.02 | 0.00 | 91 | 1025.8 |
| 20260508041504 | 49 | 253 | 3.0 | 6.0 | 0.00 | 0.02 | 0.00 | 91 | 1025.8 |
| 20260508041003 | 49 | 237 | 2.0 | 6.0 | 0.00 | 0.02 | 0.00 | 92 | 1025.8 |
| 20260508040524 | 49 | 201 | 1.0 | 4.0 | 0.00 | 0.02 | 0.00 | 92 | 1026.1 |
| 20260508040003 | 49 | 189 | 1.0 | 4.0 | 0.00 | 0.02 | 0.00 | 93 | 1025.6 |
| 20260508035503 | 49 | 195 | 2.0 | 4.0 | 0.00 | 0.02 | 0.00 | 93 | 1025.8 |
| 20260508035003 | 49 | 102 | 2.0 | 5.0 | 0.00 | 0.02 | 0.00 | 93 | 1025.7 |
| 20260508034503 | 49 | 58 | 2.0 | 5.0 | 0.00 | 0.02 | 0.00 | 92 | 1026.0 |
| 20260508034003 | 49 | 35 | 2.0 | 5.0 | 0.00 | 0.02 | 0.00 | 92 | 1025.8 |
| 20260508033503 | 49 | 22 | 2.0 | 5.0 | 0.00 | 0.02 | 0.00 | 92 | 1025.6 |
| 20260508033003 | 49 | 193 | 2.0 | 4.0 | 0.00 | 0.02 | 0.00 | 92 | 1025.8 |
| 20260508032503 | 49 | 304 | 1.0 | 4.0 | 0.00 | 0.02 | 0.00 | 92 | 1025.8 |
| 20260508032003 | 49 | 308 | 2.0 | 5.0 | 0.00 | 0.02 | 0.00 | 91 | 1026.0 |
| 20260508031503 | 49 | 276 | 3.0 | 5.0 | 0.00 | 0.02 | 0.00 | 91 | 1025.6 |
| 20260508031003 | 49 | 247 | 3.0 | 5.0 | 0.00 | 0.02 | 0.00 | 91 | 1025.8 |
| 20260508030503 | 49 | 238 | 2.0 | 5.0 | 0.00 | 0.02 | 0.00 | 91 | 1025.6 |
| 20260508030003 | 49 | 49 | 1.0 | 4.0 | 0.00 | 0.02 | 0.00 | 91 | 1025.7 |
| 20260508025503 | 49 | 29 | 2.0 | 5.0 | 0.00 | 0.02 | 0.00 | 90 | 1025.4 |
| 20260508025003 | 49 | 17 | 2.0 | 5.0 | 0.00 | 0.02 | 0.00 | 90 | 1025.7 |
| 20260508024503 | 49 | 176 | 2.0 | 5.0 | 0.00 | 0.02 | 0.00 | 90 | 1025.7 |
| 20260508024003 | 49 | 182 | 2.0 | 4.0 | 0.00 | 0.02 | 0.00 | 89 | 1025.4 |
| 20260508023503 | 49 | 61 | 2.0 | 4.0 | 0.00 | 0.02 | 0.00 | 89 | 1025.5 |
| 20260508023024 | 49 | 39 | 2.0 | 4.0 | 0.00 | 0.02 | 0.00 | 88 | 1025.4 |
| 20260508022503 | 50 | 232 | 2.0 | 5.0 | 0.00 | 0.02 | 0.00 | 88 | 1025.3 |
| 20260508022003 | 50 | 328 | 2.0 | 5.0 | 0.00 | 0.02 | 0.00 | 87 | 1025.5 |
| 20260508021503 | 50 | 1 | 3.0 | 5.0 | 0.00 | 0.02 | 0.00 | 86 | 1025.4 |
| 20260508021004 | 50 | 36 | 2.0 | 5.0 | 0.00 | 0.02 | 0.00 | 85 | 1025.4 |
| 20260508020503 | 51 | 328 | 1.0 | 4.0 | 0.00 | 0.02 | 0.00 | 84 | 1025.5 |
| 20260508020003 | 51 | 229 | 1.0 | 4.0 | 0.00 | 0.02 | 0.00 | 83 | 1025.3 |
| 20260508015524 | 51 | 194 | 2.0 | 4.0 | 0.00 | 0.02 | 0.00 | 83 | 1025.1 |
| 20260508015003 | 51 | 125 | 1.0 | 4.0 | 0.00 | 0.02 | 0.00 | 85 | 1025.2 |
| 20260508014503 | 50 | 61 | 1.0 | 4.0 | 0.00 | 0.02 | 0.00 | 85 | 1025.3 |
| 20260508014003 | 51 | 135 | 1.0 | 4.0 | 0.00 | 0.02 | 0.00 | 85 | 1025.3 |
| 20260508013503 | 51 | 197 | 2.0 | 4.0 | 0.00 | 0.02 | 0.00 | 84 | 1025.3 |
| 20260508013003 | 51 | 187 | 2.0 | 4.0 | 0.00 | 0.02 | 0.00 | 84 | 1025.5 |
| 20260508012503 | 51 | 122 | 2.0 | 3.0 | 0.00 | 0.02 | 0.00 | 84 | 1025.6 |
| 20260508012003 | 51 | 75 | 2.0 | 4.0 | 0.00 | 0.02 | 0.00 | 84 | 1025.6 |
| 20260508011524 | 51 | 65 | 1.0 | 4.0 | 0.00 | 0.02 | 0.00 | 83 | 1025.7 |
| 20260508011003 | 52 | 152 | 1.0 | 2.0 | 0.00 | 0.02 | 0.00 | 82 | 1025.5 |
| 20260508010503 | 52 | 190 | 2.0 | 6.0 | 0.00 | 0.02 | 0.00 | 81 | 1025.6 |
| 20260508010003 | 53 | 187 | 3.0 | 9.0 | 0.00 | 0.02 | 0.00 | 80 | 1025.8 |
| 20260508005503 | 53 | 161 | 3.0 | 9.0 | 0.00 | 0.02 | 0.00 | 78 | 1025.8 |
| 20260508005003 | 53 | 108 | 2.0 | 5.0 | 0.00 | 0.02 | 0.00 | 80 | 1026.1 |
| 20260508004524 | 53 | 80 | 2.0 | 4.0 | 0.00 | 0.02 | 0.00 | 80 | 1025.8 |
| 20260508004003 | 53 | 156 | 2.0 | 6.0 | 0.00 | 0.02 | 0.00 | 79 | 1026.0 |
| 20260508003503 | 53 | 171 | 3.0 | 7.0 | 0.00 | 0.02 | 0.00 | 78 | 1026.2 |
| 20260508003003 | 53 | 180 | 4.0 | 9.0 | 0.00 | 0.02 | 0.00 | 79 | 1026.0 |
| 20260508002503 | 53 | 190 | 5.0 | 10.0 | 0.00 | 0.02 | 0.00 | 79 | 1026.2 |
| 20260508002004 | 53 | 199 | 7.0 | 13.0 | 0.00 | 0.02 | 0.00 | 79 | 1026.2 |
| 20260508001503 | 53 | 205 | 8.0 | 13.0 | 0.00 | 0.02 | 0.00 | 78 | 1026.2 |
| 20260508001003 | 54 | 208 | 8.0 | 13.0 | 0.00 | 0.02 | 0.00 | 78 | 1026.4 |
| 20260508000524 | 54 | 213 | 7.0 | 13.0 | 0.00 | 0.02 | 0.00 | 77 | 1026.4 |
| 20260508000003 | 54 | 214 | 7.0 | 13.0 | 0.00 | 0.02 | 0.00 | 76 | 1026.5 |
| 20260507235503 | 54 | 214 | 7.0 | 13.0 | 0.00 | 0.02 | 0.00 | 76 | 1026.5 |
| 20260507235024 | 54 | 212 | 7.0 | 11.0 | 0.00 | 0.02 | 0.00 | 76 | 1026.3 |
| 20260507234524 | 54 | 204 | 7.0 | 12.0 | 0.00 | 0.02 | 0.00 | 76 | 1026.6 |
| 20260507234003 | 54 | 204 | 8.0 | 15.0 | 0.00 | 0.02 | 0.00 | 75 | 1026.6 |
| 20260507233503 | 55 | 211 | 9.0 | 16.0 | 0.00 | 0.02 | 0.00 | 75 | 1026.8 |
| 20260507233003 | 55 | 216 | 10.0 | 18.0 | 0.00 | 0.02 | 0.00 | 74 | 1026.6 |
| 20260507232524 | 55 | 216 | 10.0 | 18.0 | 0.00 | 0.02 | 0.00 | 74 | 1026.7 |
| 20260507232003 | 55 | 217 | 10.0 | 16.0 | 0.00 | 0.02 | 0.00 | 74 | 1026.7 |
| 20260507231503 | 55 | 220 | 9.0 | 17.0 | 0.00 | 0.02 | 0.00 | 74 | 1026.8 |
| 20260507231003 | 55 | 224 | 10.0 | 17.0 | 0.00 | 0.02 | 0.00 | 74 | 1026.7 |
| 20260507230524 | 55 | 229 | 11.0 | 17.0 | 0.00 | 0.02 | 0.00 | 74 | 1026.9 |
| 20260507230025 | 55 | 232 | 11.0 | 17.0 | 0.00 | 0.02 | 0.00 | 74 | 1027.0 |
| 20260507225503 | 55 | 235 | 10.0 | 17.0 | 0.00 | 0.02 | 0.00 | 74 | 1026.9 |
| 20260507225024 | 55 | 239 | 10.0 | 17.0 | 0.00 | 0.02 | 0.00 | 74 | 1027.0 |
| 20260507224504 | 55 | 234 | 9.0 | 15.0 | 0.00 | 0.02 | 0.00 | 75 | 1027.0 |
| 20260507224003 | 55 | 232 | 10.0 | 16.0 | 0.00 | 0.02 | 0.00 | 75 | 1027.1 |
| 20260507223503 | 55 | 231 | 9.0 | 16.0 | 0.00 | 0.02 | 0.00 | 75 | 1027.2 |
| 20260507223003 | 55 | 229 | 9.0 | 16.0 | 0.00 | 0.02 | 0.00 | 75 | 1027.1 |
| 20260507222503 | 55 | 231 | 9.0 | 16.0 | 0.00 | 0.02 | 0.00 | 75 | 1027.2 |
| 20260507222003 | 55 | 232 | 10.0 | 18.0 | 0.00 | 0.02 | 0.00 | 75 | 1027.0 |
| 20260507221524 | 55 | 231 | 11.0 | 18.0 | 0.00 | 0.02 | 0.00 | 75 | 1027.3 |
| 20260507221003 | 55 | 228 | 12.0 | 21.0 | 0.00 | 0.02 | 0.00 | 76 | 1027.2 |
| 20260507220503 | 55 | 230 | 12.0 | 21.0 | 0.00 | 0.02 | 0.00 | 76 | 1027.1 |
| 20260507220004 | 55 | 233 | 13.0 | 20.0 | 0.00 | 0.02 | 0.00 | 77 | 1027.1 |
| 20260507215503 | 55 | 234 | 13.0 | 21.0 | 0.00 | 0.02 | 0.02 | 77 | 1027.2 |
| 20260507215025 | 55 | 235 | 13.0 | 21.0 | 0.00 | 0.02 | 0.02 | 77 | 1027.3 |
| 20260507214503 | 55 | 236 | 11.0 | 20.0 | 0.00 | 0.02 | 0.02 | 77 | 1027.2 |
| 20260507214003 | 55 | 238 | 11.0 | 17.0 | 0.00 | 0.02 | 0.02 | 77 | 1027.3 |
| 20260507213503 | 54 | 239 | 11.0 | 17.0 | 0.00 | 0.02 | 0.02 | 78 | 1027.3 |
| 20260507213003 | 54 | 240 | 11.0 | 17.0 | 0.00 | 0.02 | 0.02 | 77 | 1027.2 |
| 20260507212503 | 54 | 241 | 11.0 | 20.0 | 0.00 | 0.02 | 0.02 | 78 | 1027.2 |
| 20260507212003 | 54 | 239 | 12.0 | 20.0 | 0.00 | 0.02 | 0.02 | 78 | 1027.1 |
| 20260507211524 | 54 | 237 | 11.0 | 18.0 | 0.00 | 0.02 | 0.02 | 78 | 1027.2 |
| 20260507211003 | 54 | 238 | 11.0 | 17.0 | 0.00 | 0.02 | 0.02 | 78 | 1027.2 |
| 20260507210503 | 54 | 241 | 11.0 | 19.0 | 0.00 | 0.02 | 0.02 | 77 | 1027.1 |
| 20260507210003 | 54 | 239 | 12.0 | 19.0 | 0.00 | 0.02 | 0.02 | 77 | 1027.0 |
| 20260507205503 | 54 | 239 | 12.0 | 20.0 | 0.00 | 0.02 | 0.02 | 76 | 1027.0 |
| 20260507205003 | 54 | 235 | 13.0 | 20.0 | 0.00 | 0.02 | 0.02 | 75 | 1026.6 |
| 20260507204503 | 55 | 233 | 13.0 | 20.0 | 0.00 | 0.02 | 0.02 | 74 | 1026.7 |
| 20260507204003 | 55 | 235 | 12.0 | 20.0 | 0.00 | 0.02 | 0.02 | 73 | 1026.9 |
| 20260507203503 | 55 | 232 | 11.0 | 19.0 | 0.00 | 0.02 | 0.02 | 73 | 1026.8 |
| 20260507203003 | 55 | 226 | 11.0 | 19.0 | 0.00 | 0.02 | 0.02 | 72 | 1026.8 |
| 20260507202503 | 55 | 226 | 10.0 | 17.0 | 0.00 | 0.02 | 0.02 | 72 | 1026.9 |
| 20260507202024 | 55 | 232 | 11.0 | 16.0 | 0.00 | 0.02 | 0.02 | 71 | 1026.7 |
| 20260507201503 | 55 | 235 | 9.0 | 16.0 | 0.00 | 0.02 | 0.02 | 71 | 1026.7 |
| 20260507201003 | 55 | 233 | 7.0 | 12.0 | 0.00 | 0.02 | 0.02 | 73 | 1026.8 |
| 20260507200503 | 55 | 226 | 7.0 | 11.0 | 0.00 | 0.02 | 0.02 | 72 | 1026.7 |
| 20260507200024 | 55 | 223 | 7.0 | 14.0 | 0.00 | 0.02 | 0.02 | 71 | 1026.7 |
| 20260507195503 | 55 | 231 | 5.0 | 14.0 | 0.00 | 0.02 | 0.02 | 72 | 1026.5 |
| 20260507195003 | 55 | 237 | 6.0 | 13.0 | 0.00 | 0.02 | 0.02 | 73 | 1026.2 |
| 20260507194503 | 56 | 235 | 8.0 | 14.0 | 0.00 | 0.02 | 0.02 | 72 | 1026.3 |
| 20260507194003 | 56 | 225 | 9.0 | 17.0 | 0.00 | 0.02 | 0.02 | 71 | 1026.3 |
| 20260507193503 | 56 | 221 | 10.0 | 18.0 | 0.00 | 0.02 | 0.02 | 71 | 1026.2 |
| 20260507193003 | 56 | 220 | 10.0 | 18.0 | 0.00 | 0.02 | 0.02 | 70 | 1026.0 |
| 20260507192524 | 56 | 220 | 10.0 | 16.0 | 0.00 | 0.02 | 0.02 | 71 | 1025.5 |
| 20260507192003 | 57 | 218 | 9.0 | 16.0 | 0.00 | 0.02 | 0.02 | 71 | 1025.7 |
| 20260507191503 | 57 | 214 | 9.0 | 16.0 | 0.00 | 0.02 | 0.02 | 71 | 1025.7 |
| 20260507191003 | 57 | 217 | 11.0 | 19.0 | 0.00 | 0.02 | 0.02 | 71 | 1025.6 |
| 20260507190503 | 57 | 219 | 11.0 | 19.0 | 0.00 | 0.02 | 0.02 | 70 | 1025.5 |
| 20260507190004 | 57 | 210 | 9.0 | 16.0 | 0.00 | 0.02 | 0.02 | 70 | 1025.4 |
| 20260507185503 | 57 | 201 | 9.0 | 17.0 | 0.00 | 0.02 | 0.02 | 69 | 1025.5 |
| 20260507185003 | 57 | 202 | 9.0 | 17.0 | 0.00 | 0.02 | 0.02 | 69 | 1025.6 |
| 20260507184524 | 58 | 208 | 9.0 | 16.0 | 0.00 | 0.02 | 0.02 | 68 | 1025.4 |
| 20260507184003 | 58 | 208 | 9.0 | 16.0 | 0.00 | 0.02 | 0.02 | 67 | 1025.4 |
| 20260507183524 | 58 | 199 | 9.0 | 16.0 | 0.00 | 0.02 | 0.02 | 66 | 1025.2 |
| 20260507183003 | 59 | 189 | 9.0 | 16.0 | 0.00 | 0.02 | 0.02 | 65 | 1025.2 |
| 20260507182503 | 59 | 185 | 8.0 | 15.0 | 0.00 | 0.02 | 0.02 | 67 | 1025.2 |
| 20260507182003 | 59 | 187 | 8.0 | 15.0 | 0.00 | 0.02 | 0.02 | 67 | 1025.0 |
| 20260507181503 | 60 | 195 | 6.0 | 15.0 | 0.00 | 0.02 | 0.02 | 63 | 1025.2 |
| 20260507181003 | 61 | 280 | 4.0 | 11.0 | 0.00 | 0.02 | 0.02 | 58 | 1025.1 |
| 20260507180504 | 62 | 322 | 7.0 | 16.0 | 0.00 | 0.02 | 0.02 | 56 | 1024.9 |
| 20260507180003 | 62 | 320 | 8.0 | 16.0 | 0.00 | 0.02 | 0.02 | 53 | 1024.9 |
| 20260507175503 | 62 | 294 | 6.0 | 18.0 | 0.00 | 0.02 | 0.02 | 44 | 1024.7 |
| 20260507175024 | 61 | 268 | 7.0 | 18.0 | 0.00 | 0.02 | 0.02 | 49 | 1024.0 |
| 20260507174503 | 59 | 280 | 9.0 | 16.0 | 0.00 | 0.02 | 0.02 | 61 | 1024.5 |
| 20260507174003 | 59 | 289 | 9.0 | 16.0 | 0.00 | 0.02 | 0.02 | 60 | 1024.8 |
| 20260507173503 | 58 | 300 | 8.0 | 14.0 | 0.00 | 0.02 | 0.02 | 67 | 1024.8 |
| 20260507173004 | 58 | 296 | 8.0 | 16.0 | 0.00 | 0.02 | 0.02 | 67 | 1024.9 |
| 20260507172503 | 58 | 284 | 10.0 | 21.0 | 0.00 | 0.02 | 0.02 | 66 | 1025.0 |
| 20260507172003 | 59 | 287 | 15.0 | 27.0 | 0.00 | 0.02 | 0.02 | 63 | 1025.2 |
| 20260507171503 | 60 | 278 | 16.0 | 28.0 | 0.00 | 0.02 | 0.02 | 61 | 1025.3 |
| 20260507171003 | 63 | 254 | 12.0 | 28.0 | 0.00 | 0.02 | 0.02 | 55 | 1025.2 |
| 20260507170524 | 63 | 234 | 11.0 | 17.0 | 0.00 | 0.02 | 0.02 | 55 | 1025.3 |
| 20260507170024 | 63 | 213 | 9.0 | 17.0 | 0.00 | 0.02 | 0.02 | 55 | 1025.0 |
| 20260507165503 | 64 | 196 | 8.0 | 14.0 | 0.00 | 0.02 | 0.02 | 53 | 1024.7 |
| 20260507165004 | 64 | 181 | 9.0 | 17.0 | 0.00 | 0.02 | 0.02 | 54 | 1024.6 |
| 20260507164503 | 64 | 182 | 10.0 | 17.0 | 0.00 | 0.02 | 0.02 | 55 | 1024.8 |
| 20260507164003 | 64 | 185 | 11.0 | 18.0 | 0.00 | 0.02 | 0.02 | 54 | 1024.7 |
| 20260507163503 | 64 | 172 | 10.0 | 18.0 | 0.00 | 0.02 | 0.02 | 54 | 1024.6 |
| 20260507163003 | 64 | 162 | 9.0 | 16.0 | 0.00 | 0.02 | 0.02 | 50 | 1024.7 |
| 20260507162503 | 64 | 160 | 8.0 | 16.0 | 0.00 | 0.02 | 0.02 | 55 | 1024.5 |
| 20260507162003 | 64 | 161 | 8.0 | 13.0 | 0.00 | 0.02 | 0.02 | 55 | 1024.7 |
| 20260507161503 | 64 | 160 | 8.0 | 16.0 | 0.00 | 0.02 | 0.02 | 55 | 1024.7 |
| 20260507161003 | 64 | 163 | 9.0 | 16.0 | 0.00 | 0.02 | 0.02 | 55 | 1024.5 |
| 20260507160524 | 64 | 174 | 8.0 | 15.0 | 0.00 | 0.02 | 0.02 | 54 | 1024.4 |
| 20260507160003 | 64 | 181 | 9.0 | 18.0 | 0.00 | 0.02 | 0.02 | 58 | 1024.8 |
| 20260507155503 | 63 | 178 | 10.0 | 18.0 | 0.00 | 0.02 | 0.02 | 57 | 1024.6 |
| 20260507155003 | 63 | 168 | 9.0 | 16.0 | 0.00 | 0.02 | 0.02 | 58 | 1024.6 |
| 20260507154503 | 62 | 164 | 9.0 | 15.0 | 0.00 | 0.02 | 0.02 | 57 | 1024.8 |
| 20260507154004 | 62 | 161 | 9.0 | 15.0 | 0.00 | 0.02 | 0.02 | 60 | 1024.6 |
| 20260507153504 | 62 | 159 | 8.0 | 13.0 | 0.00 | 0.02 | 0.02 | 60 | 1024.4 |
| 20260507153003 | 62 | 168 | 7.0 | 14.0 | 0.00 | 0.02 | 0.02 | 59 | 1024.7 |
| 20260507152503 | 62 | 182 | 8.0 | 14.0 | 0.00 | 0.02 | 0.02 | 59 | 1024.7 |
| 20260507152003 | 62 | 178 | 8.0 | 13.0 | 0.00 | 0.02 | 0.02 | 60 | 1025.0 |
| 20260507151504 | 62 | 170 | 7.0 | 12.0 | 0.00 | 0.02 | 0.02 | 58 | 1025.1 |
| 20260507151024 | 62 | 167 | 5.0 | 10.0 | 0.00 | 0.02 | 0.02 | 59 | 1024.8 |
| 20260507150503 | 61 | 145 | 5.0 | 10.0 | 0.00 | 0.02 | 0.02 | 61 | 1025.1 |
| 20260507150004 | 62 | 141 | 5.0 | 10.0 | 0.00 | 0.02 | 0.02 | 59 | 1024.9 |
| 20260507145503 | 62 | 136 | 6.0 | 11.0 | 0.00 | 0.02 | 0.02 | 61 | 1024.9 |
| 20260507145003 | 62 | 127 | 7.0 | 13.0 | 0.00 | 0.02 | 0.02 | 60 | 1024.8 |
| 20260507144503 | 62 | 135 | 7.0 | 13.0 | 0.00 | 0.02 | 0.02 | 58 | 1024.7 |
| 20260507144024 | 63 | 135 | 7.0 | 15.0 | 0.00 | 0.02 | 0.02 | 61 | 1024.7 |
| 20260507143503 | 62 | 138 | 6.0 | 15.0 | 0.01 | 0.02 | 0.02 | 60 | 1025.1 |
| 20260507143003 | 63 | 146 | 6.0 | 12.0 | 0.02 | 0.02 | 0.02 | 58 | 1024.8 |
| 20260507142503 | 63 | 141 | 6.0 | 12.0 | 0.02 | 0.02 | 0.02 | 54 | 1024.9 |
| 20260507142003 | 63 | 141 | 6.0 | 11.0 | 0.02 | 0.02 | 0.02 | 59 | 1024.4 |
| 20260507141503 | 62 | 135 | 4.0 | 11.0 | 0.02 | 0.02 | 0.02 | 58 | 1024.8 |
| 20260507141003 | 62 | 110 | 3.0 | 6.0 | 0.02 | 0.02 | 0.02 | 60 | 1024.7 |
| 20260507140503 | 61 | 109 | 3.0 | 5.0 | 0.02 | 0.02 | 0.02 | 59 | 1024.8 |
| 20260507140003 | 60 | 126 | 2.0 | 5.0 | 0.02 | 0.02 | 0.02 | 62 | 1024.6 |
| 20260507135503 | 60 | 147 | 2.0 | 4.0 | 0.02 | 0.02 | 0.02 | 64 | 1025.0 |
| 20260507135004 | 60 | 149 | 1.0 | 3.0 | 0.02 | 0.02 | 0.02 | 66 | 1024.9 |
| 20260507134503 | 60 | 75 | 2.0 | 8.0 | 0.02 | 0.02 | 0.02 | 68 | 1024.9 |
| 20260507134024 | 60 | 28 | 3.0 | 8.0 | 0.02 | 0.02 | 0.02 | 67 | 1025.1 |
| 20260507133524 | 60 | 9 | 4.0 | 9.0 | 0.01 | 0.01 | 0.01 | 66 | 1025.1 |
| 20260507133004 | 59 | 10 | 6.0 | 11.0 | 0.00 | 0.00 | 0.00 | 65 | 1024.9 |
| 20260507132503 | 59 | 8 | 7.0 | 11.0 | 0.00 | 0.00 | 0.00 | 67 | 1025.0 |
| 20260507132003 | 60 | 5 | 6.0 | 9.0 | 0.00 | 0.00 | 0.00 | 61 | 1024.9 |
| 20260507131524 | 60 | 6 | 5.0 | 10.0 | 0.00 | 0.00 | 0.00 | 59 | 1025.3 |
| 20260507131003 | 61 | 16 | 6.0 | 12.0 | 0.00 | 0.00 | 0.00 | 54 | 1025.1 |
| 20260507130503 | 61 | 17 | 7.0 | 13.0 | 0.00 | 0.00 | 0.00 | 55 | 1025.0 |
| 20260507130024 | 61 | 14 | 9.0 | 13.0 | 0.00 | 0.00 | 0.00 | 52 | 1025.1 |
| 20260507125503 | 61 | 14 | 9.0 | 16.0 | 0.00 | 0.00 | 0.00 | 48 | 1025.4 |
| 20260507125003 | 61 | 15 | 9.0 | 16.0 | 0.00 | 0.00 | 0.00 | 48 | 1025.2 |
| 20260507124503 | 62 | 17 | 9.0 | 17.0 | 0.00 | 0.00 | 0.00 | 47 | 1025.5 |
| 20260507124003 | 62 | 25 | 10.0 | 21.0 | 0.00 | 0.00 | 0.00 | 48 | 1025.4 |
| 20260507123524 | 61 | 29 | 14.0 | 27.0 | 0.00 | 0.00 | 0.00 | 52 | 1025.4 |
| 20260507123024 | 62 | 19 | 15.0 | 27.0 | 0.00 | 0.00 | 0.00 | 53 | 1025.3 |
| 20260507122503 | 64 | 347 | 10.0 | 23.0 | 0.00 | 0.00 | 0.00 | 51 | 1025.4 |
| 20260507122003 | 66 | 318 | 6.0 | 22.0 | 0.00 | 0.00 | 0.00 | 46 | 1024.9 |
| 20260507121503 | 66 | 355 | 4.0 | 9.0 | 0.00 | 0.00 | 0.00 | 45 | 1025.1 |
| 20260507121003 | 66 | 30 | 3.0 | 10.0 | 0.00 | 0.00 | 0.00 | 46 | 1024.8 |
| 20260507120503 | 67 | 27 | 4.0 | 11.0 | 0.00 | 0.00 | 0.00 | 46 | 1024.8 |
| 20260507120004 | 66 | 31 | 5.0 | 11.0 | 0.00 | 0.00 | 0.00 | 48 | 1025.2 |
| 20260507115504 | 66 | 7 | 5.0 | 11.0 | 0.00 | 0.00 | 0.00 | 48 | 1024.9 |
| 20260507115003 | 67 | 324 | 5.0 | 11.0 | 0.00 | 0.00 | 0.00 | 43 | 1025.1 |
| 20260507114503 | 68 | 302 | 7.0 | 20.0 | 0.00 | 0.00 | 0.00 | 37 | 1025.1 |
| 20260507114003 | 67 | 288 | 10.0 | 20.0 | 0.00 | 0.00 | 0.00 | 39 | 1025.4 |
| 20260507113503 | 67 | 289 | 9.0 | 16.0 | 0.00 | 0.00 | 0.00 | 41 | 1025.3 |
| 20260507113024 | 67 | 285 | 9.0 | 17.0 | 0.00 | 0.00 | 0.00 | 41 | 1025.4 |
| 20260507112503 | 66 | 275 | 10.0 | 17.0 | 0.00 | 0.00 | 0.00 | 43 | 1025.5 |
| 20260507112003 | 66 | 278 | 11.0 | 20.0 | 0.00 | 0.00 | 0.00 | 43 | 1025.5 |
| 20260507111504 | 65 | 288 | 11.0 | 20.0 | 0.00 | 0.00 | 0.00 | 42 | 1025.5 |
| 20260507111003 | 65 | 291 | 12.0 | 20.0 | 0.00 | 0.00 | 0.00 | 40 | 1025.4 |
| 20260507110503 | 65 | 286 | 13.0 | 20.0 | 0.00 | 0.00 | 0.00 | 39 | 1025.7 |
| 20260507110003 | 66 | 286 | 13.0 | 22.0 | 0.00 | 0.00 | 0.00 | 41 | 1025.8 |
| 20260507105503 | 66 | 288 | 14.0 | 23.0 | 0.00 | 0.00 | 0.00 | 41 | 1025.8 |
| 20260507105024 | 66 | 285 | 13.0 | 23.0 | 0.00 | 0.00 | 0.00 | 40 | 1025.5 |
| 20260507104504 | 66 | 279 | 12.0 | 22.0 | 0.00 | 0.00 | 0.00 | 43 | 1025.8 |
| 20260507104003 | 65 | 262 | 11.0 | 22.0 | 0.00 | 0.00 | 0.00 | 43 | 1025.7 |
| 20260507103503 | 65 | 246 | 10.0 | 17.0 | 0.00 | 0.00 | 0.00 | 45 | 1025.8 |
| 20260507103003 | 64 | 256 | 11.0 | 17.0 | 0.00 | 0.00 | 0.00 | 47 | 1025.8 |
| 20260507102503 | 64 | 267 | 10.0 | 14.0 | 0.00 | 0.00 | 0.00 | 47 | 1026.0 |
| 20260507102003 | 64 | 269 | 8.0 | 14.0 | 0.00 | 0.00 | 0.00 | 48 | 1026.2 |
| 20260507101524 | 64 | 269 | 6.0 | 12.0 | 0.00 | 0.00 | 0.00 | 51 | 1026.3 |
| 20260507101003 | 64 | 278 | 4.0 | 8.0 | 0.00 | 0.00 | 0.00 | 51 | 1026.1 |
| 20260507100524 | 65 | 287 | 4.0 | 8.0 | 0.00 | 0.00 | 0.00 | 50 | 1026.0 |
| 20260507100003 | 65 | 283 | 4.0 | 8.0 | 0.00 | 0.00 | 0.00 | 50 | 1026.0 |
| 20260507095524 | 65 | 273 | 5.0 | 8.0 | 0.00 | 0.00 | 0.00 | 50 | 1026.0 |
| 20260507095003 | 65 | 263 | 4.0 | 9.0 | 0.00 | 0.00 | 0.00 | 49 | 1026.1 |
| 20260507094503 | 65 | 278 | 4.0 | 9.0 | 0.00 | 0.00 | 0.00 | 51 | 1025.7 |
| 20260507094003 | 65 | 277 | 4.0 | 8.0 | 0.00 | 0.00 | 0.00 | 49 | 1026.0 |
| 20260507093503 | 64 | 207 | 4.0 | 10.0 | 0.00 | 0.00 | 0.00 | 52 | 1026.0 |
| 20260507093003 | 64 | 176 | 4.0 | 10.0 | 0.00 | 0.00 | 0.00 | 54 | 1026.1 |
| 20260507092503 | 64 | 157 | 3.0 | 10.0 | 0.00 | 0.00 | 0.00 | 55 | 1026.0 |
| 20260507092003 | 62 | 145 | 3.0 | 8.0 | 0.00 | 0.00 | 0.00 | 58 | 1026.1 |
| 20260507091503 | 62 | 154 | 4.0 | 8.0 | 0.00 | 0.00 | 0.00 | 59 | 1025.7 |
| 20260507091003 | 62 | 163 | 5.0 | 8.0 | 0.00 | 0.00 | 0.00 | 60 | 1026.0 |
| 20260507090503 | 61 | 166 | 6.0 | 11.0 | 0.00 | 0.00 | 0.00 | 61 | 1026.0 |
| 20260507090024 | 61 | 163 | 6.0 | 11.0 | 0.00 | 0.00 | 0.00 | 63 | 1025.8 |
| 20260507085503 | 60 | 157 | 6.0 | 11.0 | 0.00 | 0.00 | 0.00 | 65 | 1026.0 |
| 20260507085003 | 60 | 166 | 6.0 | 11.0 | 0.00 | 0.00 | 0.00 | 66 | 1025.7 |
| 20260507084503 | 60 | 179 | 6.0 | 13.0 | 0.00 | 0.00 | 0.00 | 66 | 1026.1 |
| 20260507084003 | 59 | 175 | 7.0 | 13.0 | 0.00 | 0.00 | 0.00 | 67 | 1026.0 |
| 20260507083503 | 60 | 167 | 7.0 | 12.0 | 0.00 | 0.00 | 0.00 | 68 | 1025.5 |
| 20260507083003 | 59 | 158 | 8.0 | 13.0 | 0.00 | 0.00 | 0.00 | 70 | 1025.6 |
| 20260507082503 | 58 | 144 | 6.0 | 13.0 | 0.00 | 0.00 | 0.00 | 71 | 1026.0 |
| 20260507082003 | 57 | 124 | 5.0 | 9.0 | 0.00 | 0.00 | 0.00 | 74 | 1025.6 |
| 20260507081503 | 57 | 144 | 5.0 | 9.0 | 0.00 | 0.00 | 0.00 | 74 | 1025.6 |
| 20260507081003 | 57 | 183 | 5.0 | 13.0 | 0.00 | 0.00 | 0.00 | 74 | 1026.2 |
| 20260507080503 | 57 | 188 | 7.0 | 13.0 | 0.00 | 0.00 | 0.00 | 72 | 1026.1 |
| 20260507080003 | 57 | 184 | 7.0 | 13.0 | 0.00 | 0.00 | 0.00 | 73 | 1025.8 |
| 20260507075503 | 57 | 185 | 8.0 | 15.0 | 0.00 | 0.00 | 0.00 | 72 | 1025.8 |
| 20260507075003 | 57 | 202 | 10.0 | 19.0 | 0.00 | 0.00 | 0.00 | 73 | 1025.8 |
| 20260507074503 | 57 | 200 | 8.0 | 19.0 | 0.00 | 0.00 | 0.00 | 73 | 1025.7 |
| 20260507074024 | 57 | 180 | 6.0 | 12.0 | 0.00 | 0.00 | 0.00 | 75 | 1025.7 |
| 20260507073503 | 57 | 182 | 7.0 | 13.0 | 0.00 | 0.00 | 0.00 | 74 | 1025.8 |
| 20260507073003 | 57 | 172 | 7.0 | 14.0 | 0.00 | 0.00 | 0.00 | 76 | 1025.7 |
| 20260507072503 | 56 | 163 | 7.0 | 14.0 | 0.00 | 0.00 | 0.00 | 77 | 1025.5 |
| 20260507072003 | 56 | 164 | 8.0 | 14.0 | 0.00 | 0.00 | 0.00 | 78 | 1025.5 |
| 20260507071503 | 56 | 164 | 8.0 | 14.0 | 0.00 | 0.00 | 0.00 | 78 | 1025.5 |
| 20260507071003 | 56 | 160 | 7.0 | 13.0 | 0.00 | 0.00 | 0.00 | 78 | 1025.5 |
| 20260507070503 | 55 | 158 | 7.0 | 14.0 | 0.00 | 0.00 | 0.00 | 79 | 1025.3 |
| 20260507070005 | 55 | 162 | 7.0 | 14.0 | 0.00 | 0.00 | 0.00 | 80 | 1025.4 |
| 20260507065504 | 55 | 158 | 7.0 | 12.0 | 0.00 | 0.00 | 0.00 | 80 | 1025.2 |
| 20260507065003 | 55 | 163 | 6.0 | 11.0 | 0.00 | 0.00 | 0.00 | 80 | 1025.4 |
| 20260507064524 | 54 | 157 | 7.0 | 18.0 | 0.00 | 0.00 | 0.00 | 81 | 1025.5 |
| 20260507064004 | 54 | 151 | 8.0 | 18.0 | 0.00 | 0.00 | 0.00 | 81 | 1025.2 |
| 20260507063503 | 54 | 152 | 7.0 | 14.0 | 0.00 | 0.00 | 0.00 | 81 | 1025.3 |
| 20260507063024 | 54 | 150 | 7.0 | 12.0 | 0.00 | 0.00 | 0.00 | 83 | 1025.2 |
| 20260507062503 | 53 | 149 | 6.0 | 13.0 | 0.00 | 0.00 | 0.00 | 83 | 1025.3 |
| 20260507062003 | 53 | 149 | 6.0 | 13.0 | 0.00 | 0.00 | 0.00 | 84 | 1025.2 |
| 20260507061503 | 52 | 148 | 6.0 | 12.0 | 0.00 | 0.00 | 0.00 | 85 | 1025.3 |
| 20260507061003 | 52 | 147 | 6.0 | 12.0 | 0.00 | 0.00 | 0.00 | 85 | 1025.3 |
| 20260507060503 | 52 | 139 | 5.0 | 11.0 | 0.00 | 0.00 | 0.00 | 85 | 1025.3 |
| 20260507060003 | 52 | 134 | 5.0 | 11.0 | 0.00 | 0.00 | 0.00 | 85 | 1025.0 |
| 20260507055503 | 52 | 150 | 5.0 | 11.0 | 0.00 | 0.00 | 0.00 | 85 | 1025.2 |
| 20260507055003 | 52 | 155 | 6.0 | 12.0 | 0.00 | 0.00 | 0.00 | 86 | 1024.9 |
| 20260507054503 | 52 | 151 | 6.0 | 12.0 | 0.00 | 0.00 | 0.00 | 86 | 1024.9 |